Dewpoint
43 43 43 42 41 42 44 44 42 41 41 42 43 44 46 45 45 46 49 52 52 53 53 52 51 54 55 50 44 44 45 42 41 36 30 29 27 24 23 21 20 18 16 16 15 14 11
41 41 43 43 44 41 43 43 42 41 41 41 43 44 46 45 45 46 48 51 52 52 53 52 52 53 52 43 43 44 47 45 39 38 34 32 29 25 23 22 20 18 17 17 16 14 13
41 41 39 42 42 44 43 42 41 40 40 41 43 45 46 46 46 46 47 49 52 52 53 52 52 48 51 47 47 49 47 42 42 41 38 33 29 28 24 20 21 20 18 17 15 14 14
38 40 40 39 41 43 43 42 42 40 39 41 44 44 47 46 47 48 48 49 51 52 52 52 51 47 45 52 51 49 48 42 39 37 36 35 34 30 27 23 21 18 18 14 15 14 14
39 41 41 40 39 39 41 42 42 40 39 42 43 44 46 47 47 48 49 49 51 51 52 52 48 46 42 51 50 49 48 44 39 37 37 37 35 30 26 22 18 18 14 14 15 14 13
39 40 40 40 39 38 39 41 42 42 41 41 42 43 45 46 48 49 49 49 49 51 49 50 47 39 43 46 47 45 44 41 34 35 37 37 34 29 24 22 11 14 15 15 14 14 13
41 40 40 40 39 38 38 41 42 42 42 41 42 43 44 46 48 48 48 45 42 41 43 38 33 33 38 47 46 45 36 35 36 35 35 35 32 28 24 24 22 19 15 14 14 15 14
42 41 40 40 40 40 38 37 41 41 41 41 42 43 43 45 47 48 48 41 39 44 38 40 37 40 38 39 44 45 43 29 32 32 34 34 31 31 27 25 23 22 20 17 17 15 13
41 41 40 40 40 39 40 38 37 37 39 40 41 42 42 44 45 46 43 41 42 45 36 37 39 36 33 28 40 42 43 32 29 33 33 33 30 32 26 24 23 21 19 18 15 14 13
41 40 39 40 40 40 38 39 39 37 37 39 41 41 43 44 42 44 41 44 45 45 31 28 34 36 32 26 32 43 42 40 30 27 33 32 33 31 27 25 24 20 20 17 15 13 10
40 39 39 40 40 40 38 38 38 38 39 40 40 41 43 43 42 39 41 44 45 43 17 20 25 38 34 26 25 31 43 41 35 29 29 26 28 31 29 25 24 22 21 17 15 14 12
40 40 39 39 40 40 37 37 37 38 39 38 39 40 42 41 43 42 42 46 42 28 16 16 22 37 35 30 22 36 37 41 38 37 31 27 28 28 30 30 26 24 21 19 18 17 13
40 41 39 39 38 36 37 38 36 36 36 37 40 40 41 42 37 41 46 43 27 20 17 17 19 36 35 34 30 27 34 35 34 32 28 28 28 27 27 27 27 25 20 17 15 14 11
40 40 39 38 37 36 38 35 35 35 36 38 41 42 41 41 41 43 41 33 21 23 19 16 16 30 33 34 35 28 24 30 35 32 28 26 24 27 27 25 25 24 22 19 14 14 12
37 38 40 39 37 36 37 34 36 38 41 41 42 39 39 40 43 43 36 25 24 24 24 18 17 14 31 33 34 35 29 25 33 33 29 26 26 26 26 26 25 24 21 22 19 18 15
39 40 40 39 38 36 36 37 38 40 41 41 39 38 38 40 44 41 33 27 27 32 28 21 17 16 12 29 30 33 34 33 28 34 32 28 26 26 24 24 24 23 24 20 20 16 15
39 38 39 38 37 35 36 37 38 40 40 40 39 34 37 43 46 37 27 28 28 30 30 31 21 20 13 15 27 29 36 36 35 32 37 34 29 27 27 23 21 20 20 20 21 19 16
37 36 35 36 36 35 35 38 38 41 39 37 36 27 38 42 35 34 29 32 30 29 31 31 28 28 20 15 15 17 19 30 37 36 33 34 30 28 27 28 26 22 17 19 19 18 19
38 37 36 37 35 35 37 38 40 40 36 37 33 31 36 43 29 30 32 31 32 30 32 30 29 29 28 26 22 20 18 21 29 34 38 34 33 29 27 27 27 25 24 23 21 21 18
35 34 35 38 35 35 38 39 40 40 36 38 33 24 28 37 33 31 31 31 28 31 31 32 32 31 30 29 29 27 28 28 30 30 37 40 37 33 26 25 24 21 21 21 21 20 19
36 35 35 35 35 38 39 40 41 39 34 37 31 26 30 24 27 30 31 31 29 28 31 33 33 30 30 29 28 27 26 27 30 35 36 36 33 33 35 37 37 34 35 34 21 21 20
36 35 34 36 39 39 41 39 39 38 37 34 28 29 32 30 29 28 28 29 29 32 32 29 29 30 32 30 30 27 27 26 26 31 32 35 32 35 31 34 34 31 31 31 34 32 21
35 35 33 37 39 40 39 39 39 39 37 32 33 36 33 26 25 24 24 25 26 32 31 34 33 32 32 31 31 32 32 31 32 31 31 29 29 29 25 26 27 26 28 28 32 34 30
32 34 32 37 37 40 39 40 40 41 39 36 33 33 29 22 24 24 23 24 24 27 28 30 31 31 32 33 33 33 32 32 33 33 34 30 29 29 24 25 19 22 29 29 29 30 34
34 35 34 36 38 40 40 39 39 40 40 39 38 35 30 22 23 23 24 26 27 27 28 28 29 32 34 33 32 29 26 27 27 30 31 33 31 27 25 21 20 20 24 26 31 28 28
34 34 33 33 37 38 40 39 39 39 39 39 38 38 33 27 22 29 30 32 28 27 28 29 31 32 35 33 31 24 21 21 19 25 28 31 31 30 25 22 16 16 20 23 23 18 24
34 33 33 33 35 37 38 39 40 39 39 38 37 38 34 27 27 29 29 28 34 33 31 33 32 32 35 31 28 26 24 25 21 21 21 27 27 26 25 24 24 22 21 21 18 20 20
35 34 33 33 33 35 37 37 38 39 39 38 34 37 35 28 27 30 31 32 32 33 29 32 33 34 33 30 29 28 27 29 28 27 21 21 23 24 25 23 20 25 25 22 22 22 20
36 35 35 34 33 33 34 36 36 37 37 37 34 36 40 34 28 31 33 34 34 34 34 34 34 33 33 31 32 30 29 30 28 23 27 23 24 21 24 22 27 26 25 25 26 23 23
Wind_Speed
13 13 14 13 13 12 14 13 12 13 15 16 17 18 18 18 18 18 17 16 15 14 15 14 13 15 5 5 13 12 12 18 11 5 6 7 7 5 8 7 12 13 16 18 15 18 17
13 13 13 14 14 13 12 12 14 15 16 17 17 18 18 19 19 18 18 17 14 14 13 14 13 12 4 22 9 16 16 16 10 9 12 6 9 6 9 14 14 16 28 28 20 18 11
12 12 13 12 14 13 14 13 14 16 17 18 18 19 18 20 20 19 18 17 16 14 13 12 11 8 12 27 11 22 27 15 11 13 11 14 6 6 5 9 5 7 16 21 14 9 6
13 13 13 12 13 14 15 15 16 17 17 18 17 19 17 20 19 19 18 17 16 14 13 10 7 4 13 8 15 23 17 18 15 20 19 22 9 6 6 6 6 8 7 14 6 9 9
12 13 12 13 15 15 14 17 17 17 17 17 17 18 19 19 19 19 17 18 17 15 13 10 5 5 16 7 12 25 23 20 17 16 12 15 6 6 6 6 6 6 18 12 10 6 9
12 13 13 14 15 15 15 17 16 17 16 17 18 19 19 19 20 18 17 17 15 10 7 6 4 6 13 9 17 10 14 22 15 12 11 9 6 10 7 11 29 15 9 11 14 8 13
12 13 14 14 15 15 15 16 16 15 15 17 18 19 21 20 19 15 12 9 3 4 7 12 12 13 13 15 12 14 7 16 12 9 17 9 12 26 26 21 8 6 9 16 8 11 9
11 13 14 15 14 16 16 15 15 16 17 18 17 18 20 22 18 15 8 5 4 5 9 22 28 22 25 17 11 16 3 15 16 28 16 8 29 28 14 18 17 18 23 29 18 19 11
11 12 14 15 14 15 16 15 17 18 18 19 19 19 19 19 17 9 11 16 16 16 7 8 13 12 16 13 18 27 5 13 17 20 23 27 18 19 20 21 20 22 27 24 23 18 17
11 12 14 14 14 14 15 16 16 16 17 19 19 19 19 18 10 6 8 11 19 2 7 9 10 11 11 13 15 19 25 8 15 31 27 22 25 18 27 31 26 29 24 15 20 16 22
12 12 14 14 14 15 16 17 17 17 18 18 19 20 19 12 13 8 9 6 6 7 7 8 17 8 13 19 8 21 23 9 22 21 19 30 28 34 26 36 27 23 16 18 20 23 16
13 13 14 14 14 15 17 17 16 18 18 20 20 20 19 11 5 15 12 7 7 10 16 7 11 16 12 17 24 4 15 21 6 21 23 34 15 22 38 31 25 24 13 18 17 8 17
14 12 13 13 15 18 18 17 17 18 21 21 21 22 18 11 12 9 5 6 9 10 5 6 7 17 27 21 22 34 11 22 25 19 28 32 34 33 23 33 26 19 16 16 15 19 32
13 13 13 13 16 18 18 18 19 19 20 22 22 23 18 19 14 14 4 8 12 7 17 8 7 16 24 15 11 30 40 27 15 21 19 29 24 33 23 36 30 40 30 17 18 18 31
14 16 15 13 15 18 19 17 21 21 20 22 25 11 10 16 18 10 8 15 10 10 16 19 13 7 24 20 9 20 33 38 22 25 22 23 23 8 30 34 29 32 28 33 22 6 4
15 16 14 14 15 18 18 21 20 20 22 21 12 12 10 10 15 12 12 12 13 12 7 20 17 10 17 17 16 16 20 23 40 29 28 14 13 29 25 31 29 30 31 20 15 29 32
15 16 14 16 17 17 19 20 20 21 18 21 6 8 7 8 15 11 23 16 14 9 10 3 24 19 13 4 21 21 6 13 16 30 27 23 21 7 8 29 38 34 35 25 21 22 27
15 16 16 16 17 17 18 20 19 19 14 8 4 6 3 10 14 7 23 11 10 14 14 16 8 13 27 36 17 9 13 19 5 15 30 35 11 38 36 17 12 20 32 34 31 32 20
17 14 16 16 16 18 18 20 20 17 11 7 6 7 5 2 7 14 12 17 12 9 7 7 16 11 16 11 9 15 23 20 20 10 10 19 15 25 19 27 37 23 27 19 19 27 37
15 16 18 17 16 18 17 17 19 15 6 2 4 6 5 1 0 6 10 14 27 16 24 18 19 17 20 23 19 11 12 4 10 15 11 23 12 15 39 32 11 17 31 31 26 27 31
17 16 16 17 16 18 18 19 15 8 3 3 3 4 4 6 6 11 10 7 14 19 15 14 8 29 24 13 17 19 22 17 8 4 9 21 11 12 17 15 21 21 21 24 26 30 28
15 15 16 18 19 19 19 13 12 6 1 3 3 4 4 9 14 11 8 4 11 13 10 17 28 25 12 26 27 26 15 11 11 1 4 5 6 9 10 11 14 16 24 25 28 31 27
14 15 15 18 18 21 12 11 9 6 3 4 3 4 7 7 10 12 10 16 12 7 12 25 19 20 18 34 29 23 18 22 10 4 7 12 8 9 20 17 14 17 25 22 24 29 27
14 15 15 17 17 18 12 11 10 8 5 5 5 5 6 17 14 11 18 25 24 25 28 24 19 26 42 17 15 19 18 22 20 21 10 15 18 12 24 9 25 14 10 16 24 30 30
16 14 15 16 18 17 10 9 10 10 11 5 6 5 5 15 18 25 25 23 26 26 32 32 33 33 19 14 10 12 12 10 24 27 20 15 16 14 17 25 20 20 12 11 13 23 26
17 15 16 15 17 17 13 10 10 11 12 7 8 9 7 12 18 14 27 20 26 27 30 35 30 23 14 12 11 16 16 13 11 11 28 30 29 27 14 15 27 24 22 28 30 32 30
16 16 16 16 18 17 17 14 14 12 13 9 8 9 8 14 18 23 7 20 10 8 11 14 8 13 19 20 20 17 21 13 22 24 18 26 25 36 31 25 14 22 21 14 19 16 39
16 16 16 17 18 19 17 17 17 16 14 12 12 11 11 11 23 26 26 17 19 19 27 10 11 11 11 15 13 9 15 11 10 7 21 20 15 20 19 22 29 17 24 26 26 39 37
15 17 17 17 18 20 20 20 19 20 17 15 13 9 9 12 17 23 28 33 33 34 23 5 6 3 4 7 10 6 8 9 13 11 16 17 20 26 21 12 13 23 28 24 28 35 31
Wind_Direction
5 -0 354 351 351 350 352 350 344 340 334 330 330 324 319 323 325 325 324 307 306 309 312 322 333 338 347 234 240 289 322 341 312 255 221 242 243 189 248 269 297 284 284 284 280 287 230
350 345 350 350 344 344 344 344 337 329 328 325 324 322 314 317 318 318 318 315 294 299 304 312 326 329 231 252 271 291 1 333 319 326 295 237 250 241 261 265 266 284 286 284 288 287 230
345 348 338 344 345 340 339 334 332 330 325 324 326 326 315 317 315 314 312 312 299 295 295 304 322 314 247 243 278 298 302 290 292 292 297 279 258 218 304 277 261 289 308 306 272 257 252
340 339 337 342 340 341 335 327 324 328 326 331 328 327 319 315 311 307 304 303 295 290 287 289 305 296 259 272 253 280 286 289 279 263 254 259 270 260 216 262 313 300 296 272 301 241 250
341 340 338 337 340 330 324 326 320 325 328 329 325 324 320 315 308 301 302 299 295 284 275 274 296 216 272 233 234 251 243 257 272 292 280 261 257 240 254 219 258 227 249 252 293 258 263
336 337 334 331 334 329 327 329 319 331 332 327 323 322 321 319 311 302 299 293 287 299 283 230 235 285 246 247 233 239 223 215 237 275 283 235 216 224 192 192 218 220 223 247 252 270 265
333 332 334 329 328 329 324 332 332 328 324 323 323 322 322 318 314 324 312 311 259 270 212 213 197 221 288 221 268 235 205 204 218 226 225 192 205 222 216 209 205 254 243 244 254 262 260
329 331 330 326 326 325 327 322 324 327 328 325 323 319 320 320 320 317 314 227 181 36 288 236 247 241 263 300 285 291 234 195 192 218 220 239 223 226 216 219 225 238 251 258 280 271 254
334 329 325 322 321 326 325 325 321 314 318 320 318 317 314 320 324 298 240 239 277 4 288 265 221 233 237 235 254 258 254 209 213 206 210 212 225 214 201 223 225 232 234 241 247 277 272
327 326 326 322 322 324 324 321 316 314 313 312 314 314 313 327 309 299 242 221 232 84 270 259 217 240 200 216 260 239 245 239 224 214 210 230 233 235 205 221 217 232 230 238 249 249 255
328 327 323 323 321 321 323 320 316 317 313 317 316 314 312 317 300 293 289 247 150 152 245 226 219 188 181 180 180 236 222 225 229 213 194 224 218 219 223 221 211 236 228 226 238 247 256
329 323 325 328 324 319 318 319 317 317 319 316 315 312 309 309 253 250 265 295 209 192 226 250 172 180 160 210 214 284 190 202 237 238 238 228 230 211 224 232 220 232 250 242 243 233 254
329 323 324 323 326 326 320 314 319 318 315 312 309 305 294 266 255 254 344 195 198 214 241 227 192 174 196 202 215 214 215 186 203 207 218 232 227 240 237 229 231 229 210 226 237 226 235
328 322 319 321 327 325 321 328 319 313 307 310 306 301 273 250 236 240 254 239 205 198 211 250 225 198 202 194 218 211 228 234 231 212 218 222 230 222 224 225 214 223 216 208 210 222 234
319 318 321 318 324 325 324 323 316 315 319 311 311 288 257 250 223 188 207 236 206 204 217 228 272 244 217 214 204 191 217 229 224 214 217 204 231 209 216 225 217 229 223 230 248 245 258
332 319 317 318 323 325 324 317 316 321 323 319 310 293 268 230 169 164 219 216 224 221 299 211 245 244 221 215 215 210 199 228 233 226 226 253 271 225 231 217 232 230 231 231 214 231 241
328 337 333 330 320 327 324 319 323 328 334 322 294 301 288 173 161 184 216 232 236 252 286 282 237 254 265 257 220 224 210 271 251 226 236 246 248 237 251 219 219 225 235 231 227 226 228
325 324 320 319 321 324 321 322 319 331 338 334 291 296 283 3 196 204 222 224 237 259 259 260 279 260 250 261 266 279 250 232 265 209 231 231 236 242 244 253 246 252 232 228 225 225 229
333 322 324 322 329 320 322 320 317 325 353 323 292 274 319 293 210 226 237 247 249 237 228 252 247 242 271 278 277 257 264 252 239 230 241 237 227 243 243 246 263 250 253 246 254 235 231
321 323 321 329 330 315 312 309 310 325 354 313 294 308 302 56 333 294 245 243 241 238 252 267 268 286 285 280 273 279 291 333 239 241 226 199 244 235 236 232 233 241 238 243 239 246 240
329 327 320 320 314 311 313 312 314 321 351 299 229 268 298 298 313 320 305 305 263 241 234 270 274 234 240 265 274 259 262 265 262 213 246 207 225 209 261 287 295 274 281 284 257 239 244
320 321 320 311 318 320 315 331 320 311 277 225 251 288 296 273 291 286 283 271 294 279 239 234 232 248 269 242 244 268 281 272 254 243 223 211 239 181 233 231 249 268 285 295 285 281 257
317 317 309 314 320 321 331 325 321 300 221 240 230 268 280 278 290 282 266 270 280 283 262 250 259 273 258 241 243 256 260 267 254 309 273 247 241 243 268 261 259 255 257 260 271 268 275
316 314 310 314 316 324 324 321 314 299 246 241 257 287 256 276 281 268 284 279 274 271 271 270 257 244 252 305 291 285 275 264 260 258 226 264 250 238 267 285 268 261 211 247 262 278 275
311 312 311 310 313 324 317 326 331 321 310 240 252 242 275 278 281 285 274 269 272 267 265 264 264 254 272 280 263 252 249 265 255 246 238 229 260 245 236 255 273 262 272 237 237 275 281
308 313 310 302 309 321 314 311 316 318 311 294 252 217 247 278 268 286 299 273 267 269 277 266 263 261 237 241 240 246 245 241 241 244 220 222 228 239 230 237 247 265 245 244 260 270 267
304 305 308 303 301 306 311 316 310 306 308 302 271 215 251 266 263 262 292 298 287 269 271 291 282 233 212 231 234 231 232 224 236 233 224 207 209 227 233 243 251 248 252 255 251 248 262
298 301 304 307 298 296 302 302 304 304 303 306 280 245 245 265 269 265 272 278 292 254 254 262 288 229 203 214 223 219 222 204 208 236 230 205 192 211 225 242 252 231 254 217 228 236 258
288 291 296 297 301 294 295 299 298 299 299 300 285 262 233 253 269 281 275 265 258 257 268 227 252 185 259 232 212 217 204 181 200 224 206 227 209 211 199 218 221 238 235 228 229 240 251